DW5462 Weather Reports


time (UTC)temp
F
wind
direction
speed
knots
gust
knots
rain 1hr
in
rain 24hr
in
rain mn
in
humidity
%
barometer
mb
20260504204559 60 292 0.0 0.0 0.00 0.00 0.00 65 1012.8
20260504203050 61 292 0.0 0.0 0.00 0.00 0.00 64 1012.7
20260504201550 61 292 0.0 0.0 0.00 0.00 0.00 63 1012.7
20260504200047 61 292 0.0 0.0 0.00 0.00 0.00 62 1012.5
20260504194602 61 292 0.0 0.0 0.00 0.00 0.00 61 1012.5
20260504193046 62 293 0.0 3.5 0.00 0.00 0.00 61 1012.4
20260504191542 62 267 0.0 4.3 0.00 0.00 0.00 59 1012.3
20260504190035 63 262 0.0 3.5 0.00 0.00 0.00 57 1012.3
20260504184538 63 260 0.0 3.5 0.00 0.00 0.00 57 1012.2
20260504183032 64 355 0.0 1.7 0.00 0.00 0.00 58 1012.2
20260504181537 64 13 0.0 0.0 0.00 0.00 0.00 57 1012.1
20260504180045 65 17 0.0 0.0 0.00 0.00 0.00 57 1012.0
20260504174530 65 17 0.0 0.0 0.00 0.00 0.00 57 1011.8
20260504173033 66 17 0.0 0.0 0.00 0.00 0.00 55 1011.8
20260504171516 66 17 0.0 0.0 0.00 0.00 0.00 54 1011.7
20260504140109 70 336 0.0 3.5 0.00 0.00 0.00 45 1012.4
20260504081529 63 265 0.0 1.7 0.00 0.00 0.00 53 1014.8
20260504044532 45 265 0.0 0.0 0.00 0.00 0.00 81 1014.7
20260504043028 46 265 0.0 0.0 0.00 0.00 0.00 80 1014.6
20260504041525 46 265 0.0 0.0 0.00 0.00 0.00 79 1014.5
20260504040028 47 265 0.0 0.0 0.00 0.00 0.00 79 1014.5
20260504034535 48 265 0.0 0.0 0.00 0.00 0.00 78 1014.5
20260504033023 49 265 0.0 0.0 0.00 0.00 0.00 78 1014.7
20260504031514 49 265 0.0 0.0 0.00 0.00 0.00 77 1014.5
20260504030058 50 265 0.0 0.0 0.00 0.00 0.00 77 1014.5
20260504024556 50 265 0.0 0.0 0.00 0.00 0.00 75 1014.6
20260504023054 51 265 0.0 0.0 0.00 0.00 0.00 75 1014.6
20260504021602 51 265 0.0 0.0 0.00 0.00 0.00 76 1014.7
20260504020051 51 265 0.0 0.0 0.00 0.00 0.00 75 1014.6
20260504014551 51 265 0.0 0.0 0.00 0.00 0.00 75 1014.5
20260504013055 51 265 0.0 0.0 0.00 0.00 0.00 74 1014.5
20260504011554 51 265 0.0 0.0 0.00 0.00 0.00 73 1014.6
20260504010033 51 265 0.0 0.0 0.00 0.00 0.00 74 1014.6
20260504004530 52 265 0.0 0.0 0.00 0.00 0.00 73 1014.6
20260504003016 52 265 0.0 0.0 0.00 0.00 0.00 70 1014.7
20260504001515 52 265 0.0 0.0 0.00 0.00 0.00 70 1014.7
20260504000012 52 265 0.0 0.0 0.00 0.00 0.00 70 1014.8
20260503234511 52 265 0.0 0.0 0.00 0.00 0.00 70 1014.9
20260503233008 53 265 0.0 0.0 0.00 0.00 0.00 67 1015.0
20260503231506 54 265 0.0 0.0 0.00 0.00 0.00 65 1015.1
20260503230002 55 265 0.0 0.0 0.00 0.00 0.00 64 1015.1
20260503224559 55 265 0.0 0.0 0.00 0.00 0.00 62 1015.1
20260503223045 56 265 0.0 0.0 0.00 0.00 0.00 60 1015.1
20260503221541 57 265 0.0 0.0 0.00 0.00 0.00 58 1015.1
20260503220041 58 265 0.0 0.0 0.00 0.00 0.00 58 1015.0
20260503214547 58 265 0.0 0.0 0.00 0.00 0.00 52 1015.0
20260503213057 58 265 0.0 0.0 0.00 0.00 0.00 52 1015.0
20260503211557 59 265 0.0 0.9 0.00 0.00 0.00 51 1014.9
20260503210037 59 265 0.0 0.0 0.00 0.00 0.00 50 1014.7